STARLINK-1353 (45537 NORAD) Tracking and Keplerian Element Data

This shows tracking and keplerian element data for the satellite.

Feedback or suggestion? Click here.




ElementValue
Catalog45537
NameSTARLINK-1353
Epoch Orbit1170
Epoch Day185.16667824
Epoch Year2020
RAAN63.0933
Inclination53.0042
Eccentricity0.000283
Argument of Perigee39.2781
Mean Anonmoly127.3593
Mean Motion15.11031296
Decay Rate0.00026027
L11 45537U 20025G 20185.16667824 .00026027 00000-0 15511-2 0 9991
L22 45537 53.0042 63.0933 0002830 39.2781 127.3593 15.11031296 11705

Live tracking and technical data element details for STARLINK-1353 (NORAD 45537). STARLINK-1353 can be tracked NOW for your location showing map with azimuth and elevation plus other details from your city location.

Track the satellite on the map from your city or location and see movement details for azimuth, elevation, latitude, longitude, range, height, and movement on the map or in text.







IsCatalogInMostPopularTable: catalog: 45537, numindb: 17
Update: records affected: 1



GetName: 45537 STARLINK-1353

Hit Count: updated at: Fri, 03 Jul 2020 16:21:36 GMT